KD6VPH Weather Reports


time (UTC)temp
C
wind
direction
speed
KPH
gust
KPH
rain 1hr
cm
rain 24hr
cm
rain mn
cm
humidity
%
barometer
mb
20260503223514 30 325 3.2 8.0 0.00 0.00 0.00 39 1009.7
20260503222515 29 133 1.6 3.2 0.00 0.00 0.00 42 1009.6
20260503221514 29 324 1.6 8.0 0.00 0.00 0.00 40 1009.6
20260503215514 29 358 1.6 4.8 0.00 0.00 0.00 40 1009.9
20260503214514 28 25 1.6 6.4 0.00 0.00 0.00 45 1009.9
20260503213514 28 326 1.6 9.7 0.00 0.00 0.00 43 1010.1
20260503212514 28 56 3.2 3.2 0.00 0.00 0.00 44 1010.2
20260503211514 28 345 1.6 4.8 0.00 0.00 0.00 44 1010.3
20260503210514 28 115 1.6 3.2 0.00 0.00 0.00 45 1010.2
20260503205514 27 326 1.6 4.8 0.00 0.00 0.00 47 1010.3
20260503203514 27 1 1.6 3.2 0.00 0.00 0.00 48 1010.5
20260503202514 27 321 1.6 4.8 0.00 0.00 0.00 46 1010.5
20260503201514 27 350 1.6 4.8 0.00 0.00 0.00 48 1010.8
20260503200514 26 342 1.6 3.2 0.00 0.00 0.00 50 1010.8
20260503195514 26 77 1.6 4.8 0.00 0.00 0.00 48 1011.0
20260503194514 26 300 1.6 6.4 0.00 0.00 0.00 50 1011.0
20260503192514 25 356 1.6 3.2 0.00 0.00 0.00 53 1011.2
20260503191514 25 326 1.6 8.0 0.00 0.00 0.00 53 1011.2
20260503190514 25 335 1.6 4.8 0.00 0.00 0.00 53 1011.4
20260503184514 24 321 1.6 6.4 0.00 0.00 0.00 55 1011.5
20260503183514 23 300 1.6 4.8 0.00 0.00 0.00 56 1011.6
20260503182514 23 41 1.6 3.2 0.00 0.00 0.00 55 1011.6
20260503181514 22 12 1.6 3.2 0.00 0.00 0.00 56 1011.7
20260503180514 22 0 1.6 6.4 0.00 0.00 0.00 57 1011.7
20260503175514 22 324 0.0 3.2 0.00 0.00 0.00 58 1011.7
20260503174514 21 354 1.6 4.8 0.00 0.00 0.00 60 1011.8
20260503173514 21 331 1.6 6.4 0.00 0.00 0.00 62 1011.8
20260503172514 20 353 1.6 6.4 0.00 0.00 0.00 63 1012.0
20260503171514 20 354 1.6 4.8 0.00 0.00 0.00 63 1011.7
20260503170514 19 353 1.6 1.6 0.00 0.00 0.00 65 1011.8
20260503150515 11 257 0.0 3.2 0.00 0.00 0.00 87 1012.1
20260503130515 10 265 0.0 0.0 0.00 0.00 0.00 87 1011.7
20260503110515 10 265 0.0 0.0 0.00 0.00 0.00 84 1012.1
20260503081516 12 265 0.0 0.0 0.00 0.00 0.00 82 1012.4
20260503072516 13 265 0.0 0.0 0.00 0.00 0.00 79 1012.6
20260503070516 13 265 0.0 0.0 0.00 0.00 0.00 78 1012.6
20260503054516 15 265 0.0 0.0 0.00 0.00 0.00 72 1012.7
20260503053516 15 265 0.0 0.0 0.00 0.00 0.00 70 1012.6
20260503052516 15 265 0.0 0.0 0.00 0.00 0.00 71 1012.6
20260503050516 16 265 0.0 0.0 0.00 0.00 0.00 69 1012.6
20260503045516 16 265 0.0 0.0 0.00 0.00 0.00 68 1012.5
20260503044516 16 265 0.0 0.0 0.00 0.00 0.00 66 1012.4
20260503043516 17 265 0.0 0.0 0.00 0.00 0.00 66 1012.3
20260503042516 17 265 0.0 0.0 0.00 0.00 0.00 65 1012.4
20260503041517 17 265 0.0 0.0 0.00 0.00 0.00 64 1012.3
20260503040554 17 265 0.0 0.0 0.00 0.00 0.00 64 1012.1
20260503040517 17 265 0.0 0.0 0.00 0.00 0.00 64 1012.1
20260503034517 18 265 0.0 0.0 0.00 0.00 0.00 64 1011.8
20260503033517 18 265 0.0 3.2 0.00 0.00 0.00 62 1011.6
20260503032516 19 8 0.0 0.0 0.00 0.00 0.00 62 1011.5
20260503031517 19 8 0.0 0.0 0.00 0.00 0.00 62 1011.5
20260503030516 20 8 0.0 0.0 0.00 0.00 0.00 61 1011.4
20260503025517 20 8 0.0 0.0 0.00 0.00 0.00 61 1011.2
20260503024517 21 8 0.0 1.6 0.00 0.00 0.00 60 1011.1
20260503023517 21 8 0.0 4.8 0.00 0.00 0.00 59 1011.0
20260503022517 21 294 0.0 3.2 0.00 0.00 0.00 58 1010.9
20260503021517 22 294 0.0 3.2 0.00 0.00 0.00 58 1011.1
20260503020517 22 306 0.0 3.2 0.00 0.00 0.00 54 1011.0
20260503015517 23 280 0.0 1.6 0.00 0.00 0.00 55 1011.0
20260503014517 23 99 0.0 0.0 0.00 0.00 0.00 57 1011.1
20260503013517 24 355 0.0 3.2 0.00 0.00 0.00 54 1011.0
20260503012517 24 142 0.0 3.2 0.00 0.00 0.00 51 1011.1
20260503011517 25 34 0.0 3.2 0.00 0.00 0.00 53 1011.2
20260503010517 25 50 0.0 3.2 0.00 0.00 0.00 52 1011.1
20260503005517 25 26 0.0 1.6 0.00 0.00 0.00 51 1011.2
20260503004517 25 129 0.0 3.2 0.00 0.00 0.00 53 1011.2
20260503003517 25 149 1.6 3.2 0.00 0.00 0.00 53 1011.3
20260503002517 25 88 0.0 1.6 0.00 0.00 0.00 54 1011.5
20260503001517 25 63 0.0 4.8 0.00 0.00 0.00 51 1011.4
20260503000517 25 330 0.0 4.8 0.00 0.00 0.00 53 1011.5
20260502235517 25 115 0.0 3.2 0.00 0.00 0.00 57 1011.5
20260502234518 24 160 0.0 3.2 0.00 0.00 0.00 55 1011.6
20260502233607 24 281 1.6 4.8 0.00 0.00 0.00 55 1011.7
20260502233517 24 281 1.6 4.8 0.00 0.00 0.00 55 1011.7
20260502232517 23 248 0.0 3.2 0.00 0.00 0.00 59 1011.9
20260502231517 23 124 0.0 3.2 0.00 0.00 0.00 59 1012.1
20260502230517 23 217 0.0 3.2 0.00 0.00 0.00 59 1012.2
20260502225517 23 190 0.0 3.2 0.00 0.00 0.00 58 1012.3
20260502224517 23 70 0.0 3.2 0.00 0.00 0.00 57 1012.5